This is the latest recevied weather packets stored in our database for station/object W0AKY-13. If no packets are shown the sender has not sent any weather packets the latest 10 day(s).
| Time | Temp. | Humidity | Pressure | Rain* | Wind** | Luminosity | Snow |
|---|---|---|---|---|---|---|---|
| 1777874521 | 10.56° C | 87% | 1008.2 hPa | 0 mm | - | 0 W/m² | - |
| 1777874219 | 10.56° C | 87% | 1008.3 hPa | 0 mm | - | 0 W/m² | - |
| 1777873916 | 10.56° C | 86% | 1008.4 hPa | 0 mm | - | 0 W/m² | - |
| 1777873613 | 10.56° C | 86% | 1008.5 hPa | 0 mm | - | 0 W/m² | - |
| 1777873310 | 10.56° C | 86% | 1008.5 hPa | 0 mm | - | 0 W/m² | - |
| 1777873007 | 10.56° C | 85% | 1008.4 hPa | 0 mm | - | 0 W/m² | - |
| 1777872704 | 11.11° C | 85% | 1008.7 hPa | 0 mm | - | 0 W/m² | - |
| 1777872401 | 11.11° C | 85% | 1008.6 hPa | 0 mm | - | 0 W/m² | - |
| 1777872099 | 11.11° C | 83% | 1008.7 hPa | 0 mm | - | 0 W/m² | - |
| 1777871796 | 11.67° C | 83% | 1008.7 hPa | 0 mm | - | 0 W/m² | - |
| 1777871492 | 11.67° C | 82% | 1008.8 hPa | 0 mm | - | 0 W/m² | - |
| 1777871189 | 11.67° C | 81% | 1008.6 hPa | 0 mm | - | 0 W/m² | - |
| 1777870886 | 12.22° C | 79% | 1008.7 hPa | 0 mm | - | 0 W/m² | - |
| 1777870583 | 12.22° C | 80% | 1008.9 hPa | 0 mm | - | 0 W/m² | - |
| 1777870278 | 12.22° C | 80% | 1008.9 hPa | 0 mm | - | 0 W/m² | - |
| 1777869976 | 12.22° C | 80% | 1009 hPa | 0 mm | - | 0 W/m² | - |
| 1777869672 | 12.22° C | 79% | 1009.1 hPa | 0 mm | - | 0 W/m² | - |
| 1777869370 | 12.78° C | 80% | 1009.3 hPa | 0 mm | - | 0 W/m² | - |
| 1777869067 | 12.78° C | 79% | 1009.3 hPa | 0 mm | - | 0 W/m² | - |
| 1777868764 | 12.22° C | 77% | 1009.5 hPa | 0 mm | - | 0 W/m² | - |
| 1777868461 | 12.78° C | 80% | 1009.6 hPa | 0 mm | - | 0 W/m² | - |
| 1777868156 | 12.78° C | 79% | 1009.6 hPa | 0 mm | - | 0 W/m² | - |
| 1777867853 | 12.78° C | 79% | 1009.6 hPa | 0 mm | - | 0 W/m² | - |
| 1777867550 | 12.78° C | 78% | 1009.4 hPa | 0 mm | - | 0 W/m² | - |
| 1777867247 | 12.78° C | 75% | 1009.5 hPa | 0 mm | - | 0 W/m² | - |
* Rain latest hour (hover to see other rain measurements)
** Current wind speed in m/s (hover to see current wind gust speed)